Terremoto di magnitudo ML 3.4 del 04-05-2022 ore 19:13:50 (UTC) in zona: Albania [Land]

Un terremoto di magnitudo ML 3.4 è avvenuto nella zona: Albania [Land], il

  • 04-05-2022 19:13:50 (UTC)
  • 04-05-2022 21:13:50 (UTC +02:00) ora italiana

con coordinate geografiche (lat, lon) 42.0190, 20.2250 ad una profondità di 10 km.

Il terremoto è stato localizzato da: Sala Sismica INGV-Roma.

Ricerca terremoti: Qualsiasi nel raggio di 30 km

I valori delle coordinate ipocentrali e della magnitudo rappresentano la migliore stima con i dati a disposizione. Eventuali nuovi dati o analisi potrebbero far variare tali stime.

Visualizza la localizzazione con

Comuni entro 20 km dall'epicentro

Nessun comune italiano entro 20 km dall'epicentro.

Città più vicine con almeno 50000 abitanti

Nessun comune italiano entro 100 km dall'epicentro con almeno 50000 abitanti.

Sismicità recente e storica
Pericolosità sismica
Mappe di scuotimento
Mappa del risentimento sismico
Cronologia delle localizzazioni calcolate
Tipo Magnitudo Tempo origine (UTC) Latitudine Longitudine Profondità (km) Ora pubblicazione (UTC) Autore ID Localizzazione
Rivista
Rev100
ML 3.4 2022-05-04
19:13:50
42.0188 20.2247 10 2022-05-04
19:46:38
Sala Sismica INGV-Roma 104188411
Localizzazione e magnitudo preferite finora.
Parametri della localizzazione preferita

Localizzazione

Campo Valore
Tempo (UTC) 2022-05-04 19:13:50 ± 0.14
Latitudine 42.0188 ± 0.0072
Longitudine 20.2247 ± 0.0133
Profondità (km) 10 (operator assigned)
Metodo di valutazione manual
Stato della valutazione reviewed
Versione 100 -> SURVEY-INGV
Tipo di evento earthquake
ID localizzazione 104188411

Incertezze

Campo Valore
Tipo di incertezza uncertainty ellipse
Semi-asse maggiore dell'ellisse di confidenza (metri) 1230
Semi-asse minore dell'ellisse di confidenza (metri) 630
azimuth dell’asse maggiore dell’ellisse di confidenza (gradi) 238
Regione di confidenza sul piano orizzontale espressa mediante singolo valore di incertezza (metri) 1230.0
Livello di confidenza dell'incertezza (%) 68

Qualità

Campo Valore
Maggiore gap azimutale nella distribuzione delle stazioni all'epicentro 172
Numero di fasi associato indipendentemente se utilizzate nella localizzazione (determinazione dell'Origin) 93
Numero di fasi 34
Scarto quadratico medio dei residui di tempo risultanti dal calcolo del tempo origine (Origin) della localizzazione (sec) 0.28
Distanza epicentrale della stazione piu' vicina (gradi) 0.00000
Distanza epicentrale della stazione piu’ lontana (gradi) 5.00563
Numero di stazioni in cui l’evento e’ stato osservato 88
Numero di stazioni usate nel calcolo dell'Origin 29
Parametri della magnitudo

ML:3.4

Campo Valore
Valore 3.4
Incertezza 0.3
Num. stazioni usate 149
Tipo di magnitudo ML
Localizzazione di riferimento 104188411
Agenzia INGV
Autore Sala Sismica INGV-Roma
Tempo di creazione (UTC) 2022-05-04 19:46:38
Tempi di arrivo
SCNL Time Uncertainty Polarity Evaluation_mode Phase Azimuth Distance Takeoff_angle Residual Weight
OE.WTTA.HHZ. 2022-05-04T19:15:49.58 3.0 negative manual Pn 0.54 0
IV.TREG.EHZ. 2022-05-04T19:15:44.57 3.0 undecidable manual Pn 4.3 0
OX.CLUD.HHZ. 2022-05-04T19:15:33.67 3.0 negative manual Pn 0.76 0
OX.PLRO.HHZ. 2022-05-04T19:15:32.55 3.0 positive manual Pn 0.82 0
NI.PALA.HHZ. 2022-05-04T19:15:30.61 3.0 undecidable manual Pn -0.21 0
OX.ACOM.HHZ. 2022-05-04T19:15:29.21 3.0 negative manual Pn 0.12 0
RF.GEPF.HHZ. 2022-05-04T19:15:29.42 3.0 positive manual Pn -0.02 0
NI.VINO.HHZ. 2022-05-04T19:15:27.42 3.0 undecidable manual Pn -0.81 0
IV.CRE.HHZ. 2022-05-04T19:15:25.32 3.0 undecidable manual Pn 1.03 0
OX.DRE.HHZ. 2022-05-04T19:15:24.80 3.0 positive manual Pn 0.01 0
IV.PARC.HHZ. 2022-05-04T19:15:21.52 3.0 undecidable manual Pn -0.06 0
IV.ATPI.EHZ. 2022-05-04T19:15:19.68 3.0 positive manual Pn 0.29 0
IV.ATVO.HHZ. 2022-05-04T19:15:18.79 3.0 undecidable manual Pn -0.36 0
IV.MURB.HHZ. 2022-05-04T19:15:18.14 3.0 positive manual Pn 0.46 0
IV.NARO.HHZ. 2022-05-04T19:15:17.72 3.0 undecidable manual Pn -0.41 0
IV.ATFO.HHZ. 2022-05-04T19:15:17.04 3.0 negative manual Pn -0.45 0
IV.ATCC.EHZ. 2022-05-04T19:15:16.14 3.0 negative manual Pn -0.21 0
IV.ARRO.EHZ. 2022-05-04T19:15:15.42 3.0 negative manual Pn 1.3 0
IV.ASSB.HHZ. 2022-05-04T19:15:15.99 3.0 negative manual Pn 0.13 0
IV.SSFR.HHZ. 2022-05-04T19:15:15.17 3.0 positive manual Pn -0.44 0
IV.MPAG.EHZ. 2022-05-04T19:15:15.90 3.0 positive manual Pn -0.55 0
IV.MML1.EHZ. 2022-05-04T19:15:12.15 3.0 positive manual Pn -0.74 0
IV.CESI.HHZ. 2022-05-04T19:15:12.98 3.0 negative manual Pn -0.35 0
IV.FDMO.HHZ. 2022-05-04T19:15:11.19 3.0 negative manual Pn -0.38 0
IV.NRCA.HHZ. 2022-05-04T19:15:10.85 3.0 negative manual Pn -0.06 0
IV.MC2.EHZ. 2022-05-04T19:15:10.12 3.0 positive manual Pn -0.18 0
IV.CSP1.EHZ. 2022-05-04T19:15:10.23 3.0 negative manual Pn -0.29 0
IV.CING.HHZ. 2022-05-04T19:15:10.13 3.0 positive manual Pn -1.25 0
IV.RM33.EHZ. 2022-05-04T19:15:09.66 3.0 negative manual Pn 0.17 0
IV.LNSS.HHZ. 2022-05-04T19:15:09.97 3.0 undecidable manual Pn -1.38 0
IV.GIUL.HHZ. 2022-05-04T19:15:09.46 3.0 negative manual Pn -0.03 0
SL.KOGS.BHZ. 2022-05-04T19:15:09.87 3.0 negative manual Pn -1.04 0
IV.MMO1.EHZ. 2022-05-04T19:15:08.64 3.0 undecidable manual Pn -0.25 0
IV.SMA1.EHZ. 2022-05-04T19:15:08.53 3.0 positive manual Pn 0.14 0
SL.BOJS.BHZ. 2022-05-04T19:15:07.72 3.0 undecidable manual Pn 0.61 0
MN.CEL.HHZ. 2022-05-04T19:15:05.98 0.3 undecidable manual P 223 5.0056 38 -0.1 15
IV.TERO.HHZ. 2022-05-04T19:15:05.50 3.0 negative manual Pn -0.16 0
IV.FAGN.HHZ. 2022-05-04T19:15:05.49 3.0 undecidable manual Pn -0.1 0
IV.T0110.HHZ. 2022-05-04T19:15:03.80 3.0 negative manual Pn 0.18 0
IV.INTR.HHZ. 2022-05-04T19:15:02.13 3.0 positive manual Pn -0.2 0
IV.CERA.HHZ. 2022-05-04T19:15:02.98 3.0 positive manual Pn 1.39 0
IV.PIGN.HHZ. 2022-05-04T19:15:01.01 3.0 negative manual Pn 0.17 0
IV.RNI2.HHZ. 2022-05-04T19:15:00.40 3.0 undecidable manual Pn 0.34 0
IV.PLAC.HHZ. 2022-05-04T19:14:59.68 0.3 undecidable manual P 220 4.5901 38 -0.66 14
IV.VAGA.HHZ. 2022-05-04T19:14:59.92 3.0 positive manual Pn 0.19 0
IV.MIDA.HHZ. 2022-05-04T19:14:58.98 3.0 negative manual Pn -0.12 0
IV.PAOL.HHZ. 2022-05-04T19:14:57.78 3.0 negative manual Pn 0.33 0
IV.VITU.HHZ. 2022-05-04T19:14:56.78 3.0 negative manual Pn 0.46 0
IV.PTRJ.HHZ. 2022-05-04T19:14:56.83 3.0 undecidable manual Pn -0.02 0
IV.BSSO.HHZ. 2022-05-04T19:14:55.61 3.0 positive manual Pn -0.18 0
IV.BULG.HHZ. 2022-05-04T19:14:54.50 3.0 negative manual Pn 0.01 0
IV.CAR1.HHZ. 2022-05-04T19:14:54.24 0.3 negative manual P 229 4.1108 38 0.52 16
IV.SACR.HHZ. 2022-05-04T19:14:54.81 3.0 positive manual Pn -0.15 0
IV.GATE.HHZ. 2022-05-04T19:14:53.20 3.0 negative manual Pn 0.58 0
IV.CET2.HHZ. 2022-05-04T19:14:53.90 0.3 undecidable manual P 234 4.0784 38 0.63 15
IV.SPS2.HHZ. 2022-05-04T19:14:53.95 0.3 undecidable manual P 228 4.0137 38 1.58 10
IV.GRIS.EHZ. 2022-05-04T19:14:52.44 0.6 undecidable manual P 237 4.0119 38 0.09 12
IV.CDRU.HHZ. 2022-05-04T19:14:52.33 3.0 positive manual Pn -0.3 0
IV.CAFE.HHZ. 2022-05-04T19:14:51.01 3.0 positive manual Pn 0.26 0
IV.SERS.HHZ. 2022-05-04T19:14:51.68 0.6 undecidable manual P 223 4.0128 38 -0.68 10
IV.MOCO.HHZ. 2022-05-04T19:14:50.94 3.0 negative manual Pn 0.51 0
IV.SNAL.HHZ. 2022-05-04T19:14:50.82 3.0 negative manual Pn -0.61 0
IV.MELA.HHZ. 2022-05-04T19:14:49.54 3.0 positive manual Pn -0.52 0
IV.SIRI.HHZ. 2022-05-04T19:14:49.63 0.6 undecidable manual P 242 3.7592 38 0.77 10
MN.TIP.HHZ. 2022-05-04T19:14:49.96 0.3 undecidable manual P 224 3.8689 38 -0.42 17
IV.MCEL.HHZ. 2022-05-04T19:14:48.71 0.6 undecidable manual P 244 3.7331 38 0.22 12
mn.BZS.HHZ. 2022-05-04T19:14:48.08 3.0 undecidable manual Pn -2.87 0
IV.SCHR.EHZ. 2022-05-04T19:14:47.31 0.3 undecidable manual P 241 3.6144 38 0.45 17
IV.LADO.EHZ. 2022-05-04T19:14:47.36 1.0 positive manual P 223 3.6773 38 -0.37 6
IV.PALZ.HHZ. 2022-05-04T19:14:44.69 0.6 undecidable manual P 253 3.3680 38 1.23 9
IV.ACER.HHZ. 2022-05-04T19:14:44.48 0.6 undecidable manual P 250 3.4372 38 0.06 13
IV.APRC.HHZ. 2022-05-04T19:14:44.91 3.0 negative manual Pn -0.82 0
IV.SGRT.HHZ. 2022-05-04T19:14:42.56 1.0 undecidable manual P 267 3.3437 38 -0.56 6
OT.OT12.EHZ. 2022-05-04T19:14:41.16 0.3 undecidable manual P 265 3.2376 38 -0.5 18
IV.MIGL.HHZ. 2022-05-04T19:14:40.62 0.3 undecidable manual P 245 3.1719 38 -0.14 19
IV.MRVN.HHZ. 2022-05-04T19:14:40.24 0.3 undecidable manual P 254 3.1620 38 -0.37 19
IV.MSAG.HHZ. 2022-05-04T19:14:40.99 0.6 undecidable manual P 266 3.2259 38 -0.5 12
IV.AMUR.HHZ. 2022-05-04T19:14:37.03 0.6 undecidable manual P 249 2.9300 38 -0.38 13
MN.THL.HHZ. 2022-05-04T19:14:36.76 3.0 negative manual Pn -0.8 0
IV.NOCI.HHZ. 2022-05-04T19:14:33.73 0.3 undecidable manual P 244 2.6692 38 -0.07 22
MN.KEK.HHZ. 2022-05-04T19:14:30.11 0.3 undecidable manual P 188 2.3274 38 1.03 24
CR.STON.BHZ. 2022-05-04T19:14:26.08 0.3 undecidable manual P 295 2.0478 38 0.85 32
AC.KBN.HHZ. 2022-05-04T19:14:18.39 0.6 undecidable manual P 163 1.4569 50 1.77 19
MN.PDG.HHZ. 2022-05-04T19:14:17.80 0.6 undecidable manual S 300 0.8229 50 0.57 42
MN.TIR.HHZ. 2022-05-04T19:14:13.99 0.6 undecidable manual S 202 0.7231 50 -0.28 46
MN.PDG.HHZ. 2022-05-04T19:14:05.05 0.3 positive manual P 300 0.8229 50 -0.73 59
MN.TIR.HHZ. 2022-05-04T19:14:04.26 0.3 undecidable manual P 202 0.7231 50 0.18 71
AC.BCI.HHE. 2022-05-04T19:14:03.80 0.6 undecidable manual S 342 0.3669 50 0.1 52
AC.PHP.HHE. 2022-05-04T19:14:03.76 0.3 undecidable manual S 154 0.3705 50 -0.07 78
AC.PUK.HHZ. 2022-05-04T19:14:00.23 0.3 undecidable manual S 276 0.2473 50 0.05 80
AC.BCI.HHE. 2022-05-04T19:13:57.92 0.3 undecidable manual P 342 0.3669 50 -0.05 78
AC.PHP.HHE. 2022-05-04T19:13:57.71 0.1 undecidable manual P 154 0.3705 50 -0.33 98
AC.PUK.HHZ. 2022-05-04T19:13:55.58 0.1 undecidable manual P 276 0.2473 50 -0.36 100
Ampiezza e Magnitudo per ciascuna stazione
SCNL mag Generic_amplitude Period Type Category Unit Time_window_reference
MN.TIR.HHE. ML:3.1 0.0018850000000000002 0.5 AML other m 2022-05-04T19:14:17.48
MN.PDG.HHN. ML:3.4 0.0028122005 0.2176 AML other m 2022-05-04T19:14:19.85
MN.PDG.HNN. ML:3.4 0.0027649999999999997 0.24 AML other m 2022-05-04T19:14:19.86
MN.PDG.HNE. ML:3.4 0.0029213719999999998 0.3584 AML other m 2022-05-04T19:14:20.68
MN.PDG.HHE. ML:3.4 0.0029149095000000004 0.3584 AML other m 2022-05-04T19:14:20.68
MN.TIR.HHN. ML:3.0 0.001287931 0.3456 AML other m 2022-05-04T19:14:20.42
AC.KBN.HHN. ML:3.2 0.000773 1.52 AML other m 2022-05-04T19:14:41.95
AC.KBN.HHE. ML:3.1 0.0005925 0.72 AML other m 2022-05-04T19:14:47.18
IV.GATE.HHE. ML:3.5 0.000143 0.56 AML other m 2022-05-04T19:14:56.52
IV.GATE.HNE. ML:3.6 0.000163 0.54 AML other m 2022-05-04T19:14:56.52
IV.VITU.HHN. ML:4.1 0.0004265 1.66 AML other m 2022-05-04T19:14:58.11
IV.VITU.HHE. ML:4.2 0.000498 1.66 AML other m 2022-05-04T19:14:59.03
IV.PAOL.HHE. ML:3.4 0.00007384999999999999 0.52 AML other m 2022-05-04T19:15:00.35
CR.STON.BHN. ML:3.5 0.000825 0.48 AML other m 2022-05-04T19:15:01.40
IV.SACR.HHE. ML:3.3 0.00007139999999999999 1.24 AML other m 2022-05-04T19:15:01.07
IV.VAGA.HHE. ML:3.8 0.000164 0.76 AML other m 2022-05-04T19:15:02.70
IV.PIGN.HNE. ML:3.6 0.000104325455 0.3456 AML other m 2022-05-04T19:15:02.99
IV.PIGN.HHE. ML:3.6 0.0001175 0.34 AML other m 2022-05-04T19:15:02.82
CR.STON.BHE. ML:3.3 0.00051 0.36 AML other m 2022-05-04T19:15:03.14
IV.PIGN.HHN. ML:3.6 0.00010300000000000001 0.32 AML other m 2022-05-04T19:15:04.32
IV.VAGA.HHN. ML:3.8 0.0001985 0.32 AML other m 2022-05-04T19:15:04.34
IV.PIGN.HNN. ML:3.6 0.0001112 1.22 AML other m 2022-05-04T19:15:04.32
IV.MIDA.HHN. ML:3.3 0.00006725000000000001 0.34 AML other m 2022-05-04T19:15:05.63
IV.SACR.HHN. ML:3.2 0.00005755 0.4 AML other m 2022-05-04T19:15:06.02
IV.CERA.HHN. ML:3.8 0.0001555 0.5 AML other m 2022-05-04T19:15:06.44
IV.TERO.HHE. ML:3.2 0.000037199999999999996 1.34 AML other m 2022-05-04T19:15:07.26
IV.AMUR.HNN. ML:3.3 0.000193 0.52 AML other m 2022-05-04T19:15:11.33
IV.AMUR.HHN. ML:3.3 0.00020400000000000003 0.54 AML other m 2022-05-04T19:15:11.33
MN.KEK.HHN. ML:2.9 0.00014884455000000002 0.5632 AML other m 2022-05-04T19:15:20.89
IV.MELA.HHE. ML:3.5 0.0001513484 0.3968 AML other m 2022-05-04T19:14:52.05
IV.AMUR.HHE. ML:3.1 0.00013737365000000002 0.3328 AML other m 2022-05-04T19:15:16.04
MN.KEK.HHE. ML:3.1 0.00023249999999999999 0.64 AML other m 2022-05-04T19:15:18.65
IV.MELA.HHN. ML:3.5 0.0001655 1.18 AML other m 2022-05-04T19:15:18.17
IV.NOCI.HHN. ML:3.2 0.00018650520000000002 0.3968 AML other m 2022-05-04T19:15:21.96
IV.NOCI.HNN. ML:3.2 0.0001891889 0.4608 AML other m 2022-05-04T19:15:18.70
IV.NOCI.HHE. ML:3.2 0.000189 1.56 AML other m 2022-05-04T19:15:27.19
IV.NOCI.HNE. ML:3.2 0.000185 1.58 AML other m 2022-05-04T19:15:27.19
MN.THL.HHE. ML:3.0 0.00011064999999999999 0.66 AML other m 2022-05-04T19:15:32.50
IV.LADO.EHN. ML:3.2 0.00007935 0.52 AML other m 2022-05-04T19:15:33.19
IV.LADO.EHE. ML:3.3 0.0001165208 0.4352 AML other m 2022-05-04T19:15:57.47
IV.CDRU.HNN. ML:4.5 0.0013095000000000001 0.84 AML other m 2022-05-04T19:15:34.24
IV.CDRU.HNE. ML:4.4 0.00119729845 1.1648 AML other m 2022-05-04T19:15:34.23
IV.SCHR.EHE. ML:2.9 0.000045950000000000006 0.58 AML other m 2022-05-04T19:15:35.64
MN.THL.HHN. ML:3.1 0.00014850000000000003 0.62 AML other m 2022-05-04T19:15:36.42
IV.PALZ.HHN. ML:3.6 0.00025439325000000003 0.704 AML other m 2022-05-04T19:15:40.58
IV.CDRU.HHN. ML:3.0 0.000044899999999999994 0.36 AML other m 2022-05-04T19:15:41.73
IV.CET2.HHE. ML:3.6 0.000161 0.64 AML other m 2022-05-04T19:15:43.34
IV.GRIS.EHE. ML:3.3 0.00007950000000000001 0.84 AML other m 2022-05-04T19:15:44.34
IV.MSAG.HHN. ML:3.3 0.0001615 0.44 AML other m 2022-05-04T19:15:44.78
IV.SIRI.HHN. ML:3.3 0.00009435 1.54 AML other m 2022-05-04T19:15:44.08
IV.CAR1.HHE. ML:3.5 0.000133 1.56 AML other m 2022-05-04T19:15:45.88
IV.CET2.HHN. ML:3.9 0.00034238279999999996 0.6272 AML other m 2022-05-04T19:15:46.31
IV.PALZ.HHE. ML:3.6 0.00028149999999999996 0.58 AML other m 2022-05-04T19:15:46.51
IV.GRIS.EHN. ML:3.2 0.0000746 0.78 AML other m 2022-05-04T19:15:46.16
IV.BULG.HHN. ML:3.7 0.00019 0.32 AML other m 2022-05-04T19:15:46.62
IV.CDRU.HHE. ML:3.3 0.000087523925 0.4992 AML other m 2022-05-04T19:15:47.12
IV.SERS.HHE. ML:2.8 0.00003185 0.84 AML other m 2022-05-04T19:15:47.82
IV.SIRI.HHE. ML:3.4 0.0001185 0.36 AML other m 2022-05-04T19:15:47.74
IV.AMUR.HNE. ML:3.2 0.00014649999999999998 1.52 AML other m 2022-05-04T19:15:47.20
IV.BULG.HHE. ML:3.4 0.00008645 0.3 AML other m 2022-05-04T19:15:48.25
IV.MIGL.HHN. ML:3.7 0.0004385 1.04 AML other m 2022-05-04T19:15:49.25
IV.CAR1.HHN. ML:3.4 0.00009325 0.66 AML other m 2022-05-04T19:15:49.37
IV.BSSO.HHE. ML:3.4 0.000079 0.42 AML other m 2022-05-04T19:15:49.21
IV.SGRT.HHN. ML:3.3 0.00014450000000000002 0.68 AML other m 2022-05-04T19:15:50.93
IV.MRVN.HHE. ML:3.0 0.00009005 0.76 AML other m 2022-05-04T19:15:51.60
IV.MIGL.HHE. ML:3.7 0.000418 1.42 AML other m 2022-05-04T19:15:51.25
OT.OT12.EHE. ML:3.2 0.0001215 1.34 AML other m 2022-05-04T19:15:51.84
IV.PAOL.HHN. ML:3.5 0.00010614999999999999 0.4 AML other m 2022-05-04T19:15:52.15
OT.OT12.EHN. ML:3.2 0.00011559999999999999 0.56 AML other m 2022-05-04T19:15:52.81
IV.SGRT.HHE. ML:3.3 0.000132 1.42 AML other m 2022-05-04T19:15:52.26
IV.MRVN.HHN. ML:3.0 0.00007282100499999999 0.4224 AML other m 2022-05-04T19:15:47.36
IV.ACER.HHN. ML:3.5 0.00020999999999999998 1.48 AML other m 2022-05-04T19:15:54.23
IV.ACER.HNN. ML:3.5 0.0002035 1.48 AML other m 2022-05-04T19:15:54.23
IV.MSAG.HHE. ML:2.8 0.000057040915 0.5376 AML other m 2022-05-04T19:15:51.65
IV.BSSO.HHN. ML:3.3 0.00007579341 0.4608 AML other m 2022-05-04T19:15:54.65
IV.MOCO.HHN. ML:3.0 0.0000465 1 AML other m 2022-05-04T19:15:55.72
IV.PLAC.HHE. ML:3.2 0.00003955 1.46 AML other m 2022-05-04T19:15:55.12
IV.ACER.HHE. ML:3.5 0.0002285 0.44 AML other m 2022-05-04T19:15:57.04
IV.ACER.HNE. ML:3.5 0.000231 0.44 AML other m 2022-05-04T19:15:57.05
IV.SCHR.EHN. ML:2.9 0.00005 0.96 AML other m 2022-05-04T19:15:57.53
IV.PLAC.HHN. ML:3.2 0.00004015 0.62 AML other m 2022-05-04T19:15:57.35
mn.BZS.HHE. ML:0.0 0.00004475 1.14 AML other m 2022-05-04T19:15:57.84
mn.BZS.HHN. ML:0.0 0.0000463 1.52 AML other m 2022-05-04T19:15:57.88
IV.APRC.HHN. ML:3.5 0.0001908579 0.4352 AML other m 2022-05-04T19:15:57.59
IV.MIDA.HHE. ML:3.4 0.000069976425 0.5248 AML other m 2022-05-04T19:16:03.37
IV.RNI2.HHE. ML:3.6 0.0001035 0.58 AML other m 2022-05-04T19:16:01.96
IV.RNI2.HHN. ML:3.5 0.0000939 0.6 AML other m 2022-05-04T19:16:03.29
IV.CERA.HHE. ML:3.8 0.00017299999999999998 0.6 AML other m 2022-05-04T19:16:03.39
IV.APRC.HHE. ML:3.3 0.0001367214 0.6144 AML other m 2022-05-04T19:15:57.97
IV.MCEL.HHN. ML:3.3 0.00011149999999999999 0.9 AML other m 2022-05-04T19:16:05.23
IV.CAFE.HNN. ML:3.2 0.0000838 0.58 AML other m 2022-05-04T19:16:06.06
IV.CAFE.HHN. ML:3.2 0.0000705 0.5 AML other m 2022-05-04T19:16:06.07
MN.TIP.HHE. ML:2.8 0.00003165 0.62 AML other m 2022-05-04T19:16:06.87
IV.MCEL.HHE. ML:3.1 0.00006180757000000001 0.4992 AML other m 2022-05-04T19:16:06.28
MN.CEL.HHN. ML:3.2 0.00003181481 0.5632 AML other m 2022-05-04T19:16:08.73
IV.SNAL.HHN. ML:3.6 0.0001665 0.96 AML other m 2022-05-04T19:16:09.05
IV.SNAL.HNN. ML:3.6 0.00016849999999999998 0.94 AML other m 2022-05-04T19:16:09.06
IV.FAGN.HHN. ML:3.9 0.000178 0.46 AML other m 2022-05-04T19:16:09.15
IV.INTR.HHN. ML:3.7 0.0001326519 0.6912 AML other m 2022-05-04T19:16:09.26
IV.SERS.HHN. ML:2.8 0.000031100000000000004 1.18 AML other m 2022-05-04T19:16:10.98
MN.CEL.HHE. ML:3.2 0.0000361 0.46 AML other m 2022-05-04T19:16:10.68
IV.CAFE.HNE. ML:3.4 0.000108 1.2 AML other m 2022-05-04T19:16:11.11
IV.CAFE.HHE. ML:3.4 0.00010449999999999999 1.24 AML other m 2022-05-04T19:16:11.11
IV.FAGN.HHE. ML:4.0 0.000227 1.48 AML other m 2022-05-04T19:16:12.88
IV.TERO.HHN. ML:3.3 0.00004685 1.62 AML other m 2022-05-04T19:16:12.16
MN.TIP.HHN. ML:2.6 0.000021907385000000002 0.8832 AML other m 2022-05-04T19:15:46.59
IV.SNAL.HNE. ML:3.3 0.00008439999999999999 0.84 AML other m 2022-05-04T19:16:12.67
IV.SNAL.HHE. ML:3.2 0.00007096680999999999 0.7168 AML other m 2022-05-04T19:16:08.80
IV.MOCO.HHE. ML:3.2 0.00007568670500000001 0.768 AML other m 2022-05-04T19:15:15.04
IV.GATE.HNN. ML:3.4 0.00010695 1.44 AML other m 2022-05-04T19:16:13.76
IV.INTR.HHE. ML:3.5 0.00008549999999999999 1.34 AML other m 2022-05-04T19:16:14.72
IV.GATE.HHN. ML:3.3 0.000092061445 0.6016 AML other m 2022-05-04T19:16:12.41
IV.SMA1.EHE. ML:3.8 0.0001065 0.74 AML other m 2022-05-04T19:16:16.55
IV.SMA1.EHN. ML:3.7 0.0000906 0.42 AML other m 2022-05-04T19:16:17.36
IV.MSAG.HNE. ML:3.3 0.00014937830000000003 0.5376 AML other m 2022-05-04T19:15:51.66
IV.MSAG.HNN. ML:3.7 0.00038714740000000004 0.448 AML other m 2022-05-04T19:15:44.55
IV.APRC.HNE. ML:3.4 0.0001631119 0.6016 AML other m 2022-05-04T19:15:52.86
IV.MCEL.HNE. ML:3.5 0.00016858865 1.2032 AML other m 2022-05-04T19:15:43.42
IV.MCEL.HNN. ML:3.5 0.0001821134 0.5888 AML other m 2022-05-04T19:15:46.30
IV.MELA.HNE. ML:3.6 0.000207264515 0.6016 AML other m 2022-05-04T19:15:14.46
IV.MELA.HNN. ML:3.7 0.000247728 0.7936 AML other m 2022-05-04T19:15:28.63
IV.SIRI.HNE. ML:3.4 0.0001250067 0.3712 AML other m 2022-05-04T19:15:47.56
IV.SIRI.HNN. ML:3.2 0.00009221170000000001 0.4096 AML other m 2022-05-04T19:15:45.08
MN.TIP.HNE. ML:3.2 0.00006938851999999999 0.7168 AML other m 2022-05-04T19:15:50.96
MN.TIP.HNN. ML:3.3 0.00008374515 0.8448 AML other m 2022-05-04T19:15:26.28
IV.MOCO.HNE. ML:3.3 0.00009427229000000001 0.512 AML other m 2022-05-04T19:14:59.60
IV.MOCO.HNN. ML:3.2 0.00006967464 1.088 AML other m 2022-05-04T19:16:07.15
IV.SERS.HNE. ML:3.4 0.00009280668 1.792 AML other m 2022-05-04T19:15:54.35
IV.SERS.HNN. ML:3.0 0.000041367534999999996 0.5248 AML other m 2022-05-04T19:15:45.66
IV.CAR1.HNE. ML:3.6 0.00014699614999999998 0.768 AML other m 2022-05-04T19:15:46.79
IV.CAR1.HNN. ML:3.4 0.000099976105 0.704 AML other m 2022-05-04T19:15:49.38
IV.BULG.HNE. ML:3.4 0.000083888195 0.4608 AML other m 2022-05-04T19:15:48.24
IV.BULG.HNN. ML:3.7 0.0001904172 0.32 AML other m 2022-05-04T19:15:46.61
IV.SACR.HNE. ML:3.4 0.00008300776 0.3456 AML other m 2022-05-04T19:15:01.69
IV.SACR.HNN. ML:3.3 0.00007208787499999999 0.7424 AML other m 2022-05-04T19:15:56.60
IV.VITU.HNE. ML:4.1 0.00040584965 0.6272 AML other m 2022-05-04T19:14:57.91
IV.PTRJ.HHE. ML:2.5 0.0000101199675 0.4224 AML other m 2022-05-04T19:16:02.47
IV.PTRJ.HHN. ML:3.8 0.00020691055 0.3456 AML other m 2022-05-04T19:15:00.99
IV.PLAC.HNE. ML:3.3 0.000060161820000000005 0.704 AML other m 2022-05-04T19:15:55.23
IV.VAGA.HNE. ML:3.8 0.00017496955 0.3712 AML other m 2022-05-04T19:15:01.52
IV.VAGA.HNN. ML:3.8 0.00019659495 0.9984 AML other m 2022-05-04T19:15:23.99
IV.RNI2.HNE. ML:3.5 0.00008986205999999999 0.512 AML other m 2022-05-04T19:16:02.62
IV.RNI2.HNN. ML:3.6 0.000104656135 0.5248 AML other m 2022-05-04T19:16:03.29
IV.INTR.HNE. ML:3.8 0.00017666684999999998 0.6528 AML other m 2022-05-04T19:15:07.71
IV.INTR.HNN. ML:3.8 0.0001780007 1.1264 AML other m 2022-05-04T19:16:29.32
IV.CERA.HNE. ML:3.8 0.0001660488 0.6272 AML other m 2022-05-04T19:16:03.39
IV.CERA.HNN. ML:3.7 0.00014283115 0.4096 AML other m 2022-05-04T19:15:06.44
IV.TERO.HNE. ML:3.8 0.00014386225 0.5632 AML other m 2022-05-04T19:16:08.37
IV.TERO.HNN. ML:3.9 0.00018005959999999998 0.9216 AML other m 2022-05-04T19:15:58.49
MN.CEL.HNE. ML:3.7 0.000104652805 1.1392 AML other m 2022-05-04T19:15:11.31
MN.CEL.HNN. ML:3.6 0.000083903315 0.7424 AML other m 2022-05-04T19:16:12.95
TDMT - Time Domain Moment Tensor
Meccanismi di sorgente sismica nell'area
Download
Tipo Descrizione Link
QuakeML - small Event, Origin, FocalMechanism Download
QuakeML - full Event, Origin, FocalMechanism, Amplitude, Arrival, Pick, Station Magnitude Download
Forme d'onda Segnali sismici in formato miniseed + resp Download